AO-07 1 07530U 74089B 15316.53185387 -.00000037 00000-0 40342-4 0 9997 2 07530 101.5426 287.8841 0012243 15.6465 124.3745 12.53617773875843 FO-29 1 24278U 96046B 15316.72018671 .00000008 00000-0 42440-4 0 9992 2 24278 98.5633 265.5627 0351151 45.9410 68.5288 13.53059836950117 SO-33 1 25509U 98061B 15315.86588304 .00000360 00000-0 56905-4 0 9990 2 25509 31.4327 134.0883 0347855 288.2650 68.0423 14.30092452890575 RS-22 1 27939U 03042A 15316.51612497 .00000661 00000-0 12826-3 0 9995 2 27939 97.8589 111.9879 0011890 278.3286 81.6572 14.66211918647925 HO-68 1 36122U 09072B 15316.53054100 -.00000059 00000-0 -43517-4 0 9996 2 36122 100.1763 355.9234 0008010 135.4154 224.7616 13.16330421283978 AO-73 1 39444U 13066AE 15316.11551802 .00001536 00000-0 20089-3 0 9996 2 39444 97.7133 13.3382 0059697 14.6601 345.6326 14.80608433105305 EO-79 1 40025U 14033R 15316.69386729 .00001715 00000-0 19495-3 0 9993 2 40025 97.9398 217.0790 0014163 60.6558 299.6070 14.87520631 75865 XW-2A 1 40903U 15049E 15316.89163296 .00008577 00000-0 26282-3 0 9995 2 40903 97.4530 324.6820 0016161 185.9372 258.7922 15.33916928 8214 XW-2C 1 40906U 15049H 15316.88560280 .00004177 00000-0 24304-3 0 9996 2 40906 97.4559 323.8038 0017947 69.1434 48.4593 15.12457361 8143 LILACSAT-2 1 40908U 15049K 15316.89561308 .00002907 00000-0 17318-3 0 9997 2 40908 97.4622 323.8117 0018368 63.1888 2.0563 15.11838454 8147 XW-2E 1 40909U 15049L 15316.87508196 .00005797 00000-0 33224-3 0 9996 2 40909 97.4554 323.8184 0017333 72.2401 47.1587 15.12848262 8144 UO-11 1 14781U 84021B 15316.59103071 .00000646 00000-0 86685-4 0 9991 2 14781 97.7828 9.8749 0007428 313.1019 46.9573 14.82570821704014 AO-16 1 20439U 90005D 15315.78573928 .00000104 00000-0 54199-4 0 9993 2 20439 98.5529 249.8866 0011993 84.9567 304.4514 14.32584194347874 LO-19 1 20442U 90005G 15316.81369907 .00000119 00000-0 59640-4 0 9994 2 20442 98.5237 250.0057 0012907 70.6452 289.6127 14.32774039348224 AO-27 1 22825U 93061C 15316.60964562 .00000094 00000-0 53908-4 0 9994 2 22825 98.7282 266.8912 0007513 230.0730 129.9793 14.29916480154141 IO-26 1 22826U 93061D 15315.93359175 .00000103 00000-0 57211-4 0 9990 2 22826 98.7224 266.3628 0008113 223.2975 136.7570 14.30236572154204 GO-32 1 25397U 98043D 15315.91229074 .00000041 00000-0 36730-4 0 9997 2 25397 098.5388 261.8486 0000237 206.8043 189.1545 14.23568583900589 NO-44 1 26931U 01043C 15316.60083445 .00000077 00000-0 61581-4 0 9994 2 26931 67.0496 154.2447 0006625 277.1250 82.9097 14.30358555737028 SO-50 1 27607U 02058C 15315.92619943 .00000783 00000-0 13107-3 0 9998 2 27607 064.5540 107.6212 0082474 260.1076 099.0708 14.74916244692949 CO-55 1 27844U 03031E 15316.80686064 .00000214 00000-0 11708-3 0 9993 2 27844 98.6953 323.2192 0008902 227.3691 132.6736 14.21870944641557 CO-57 1 27848U 03031J 15316.73389485 .00000177 00000-0 10083-3 0 9999 2 27848 98.7050 323.1313 0008728 236.0208 178.9464 14.21508416641453 AO-51 1 28375U 04025K 15315.79799470 -.00000045 00000-0 00000 0 0 9992 2 28375 98.3095 252.0961 0081750 243.5424 144.4555 14.41717952597764 CP3 1 31129U 07012N 15316.45307848 .00000660 00000-0 15128-3 0 9993 2 31129 98.0012 275.9543 0095398 211.1553 269.1224 14.56034667454691 CO-65 1 32785U 08021C 15316.88848987 .00001307 00000-0 15098-3 0 9999 2 32785 97.6313 354.8542 0011991 298.7437 114.2040 14.87187393408339 PRISM 1 33493U 09002B 15316.88238791 .00004040 00000-0 38392-3 0 9991 2 33493 98.2381 161.5287 0015282 198.0394 162.0259 14.94008894368770 SOHLA-1 1 33496U 09002E 15316.41499501 .00000373 00000-0 68413-4 0 9994 2 33496 98.2324 85.7472 0007382 59.7532 344.9165 14.71467219364972 TISAT-1 1 36799U 10035E 15316.76241147 .00002199 00000-0 23903-3 0 9992 2 36799 98.0226 58.9699 0014042 81.4252 70.9732 14.89087228289064 STUDSAT 1 36801U 10035G 15316.45835697 .00019624 00000-0 99577-3 0 9992 2 36801 98.0762 84.7670 0005625 355.6180 4.5001 15.16958713290412 ALMASAT-1 1 38078U 12006B 15316.80173278 .00047570 36213-5 75993-3 0 9996 2 38078 69.4518 223.4546 0439902 50.1126 313.7831 14.88080873197076 CUBEBUG-1 1 39153U 13018D 15316.81877941 .00001307 00000-0 18137-3 0 9999 2 39153 98.0113 40.7303 0018258 130.4422 229.8385 14.79524136137451 ESTCUBE-1 1 39161U 13021C 15316.52882560 .00001065 00000-0 18002-3 0 9995 2 39161 98.0647 38.1175 0009155 195.4706 164.6227 14.71390481135053 DUCHIFAT-1 1 40021U 14033M 15316.69011637 .00002739 00000-0 29971-3 0 9999 2 40021 97.9421 217.6729 0014906 60.1376 300.1319 14.88583483 75896 NANOSATCBR1 1 40024U 14033Q 15316.72516834 .00002161 00000-0 24066-3 0 9994 2 40024 97.9401 217.3569 0014044 59.7459 300.5145 14.88093624 75888 DTUSAT-2 1 40030U 14033W 15316.68913067 .00001789 00000-0 20500-3 0 9999 2 40030 97.9383 216.7019 0013547 54.7542 305.4939 14.87152629 75843 ANTELSAT 1 40034U 14033AA 15316.61826067 .00001536 00000-0 24024-3 0 9994 2 40034 97.9262 205.2616 0060287 5.2378 354.9452 14.73011183 75146 MET-2/21 1 22782U 93055A 15316.45150936 .00000037 00000-0 20271-4 0 9998 2 22782 82.5464 126.0285 0021176 265.0366 151.8003 13.83778584121108 OKEAN-4 1 23317U 94066A 15316.82795963 .00000962 00000-0 10467-3 0 9994 2 23317 82.5357 305.7811 0019616 192.4554 242.7191 14.86903477139396 NOAA-14 1 23455U 94089A 15316.51728578 .00000033 00000-0 40021-4 0 9995 2 23455 98.7432 34.8499 0009824 23.9700 91.9523 14.14058359 76490 NOAA-15 1 25338U 98030A 15316.52321733 .00000113 00000-0 66311-4 0 9999 2 25338 98.7787 315.3093 0011697 97.1897 263.0612 14.25675685909971 RESURS 1 25394U 98043A 15315.92611692 .00000007 00000-0 21307-4 0 9992 2 25394 098.4855 265.8125 0001238 151.8634 249.2832 14.24461159901293 FENGYUN1 1 25730U 99025A 15315.96483203 .00000618 00000-0 35029-3 0 9999 2 25730 98.9558 280.8904 0021225 79.0553 317.2066 14.13690096849932 OKEAN-0 1 25860U 99039A 15315.95695584 .00000569 00000-0 89801-4 0 9997 2 25860 098.1147 284.4218 0001165 110.2079 315.3431 14.76190789877672 NOAA-16 1 26536U 00055A 15316.50310117 -.00000014 00000-0 16405-4 0 9992 2 26536 98.9266 22.2176 0010776 168.0781 192.0648 14.13114504780601 NOAA-17 1 27453U 02032A 15316.52553100 .00000041 00000-0 35280-4 0 9992 2 27453 98.3567 295.2964 0012791 105.8095 254.4496 14.24907565695788 NOAA-18 1 28654U 05018A 15316.49127501 .00000097 00000-0 78038-4 0 9990 2 28654 99.1930 312.8238 0013370 265.0661 94.8983 14.12246706540008 NOAA-19 1 33591U 09005A 15316.55184077 .00000148 00000-0 10536-3 0 9999 2 33591 99.0092 266.9142 0014884 110.3295 249.9477 14.12000854348426 HUBBLE 1 20580U 90037B 15316.13265197 .00002308 00000-0 13551-3 0 9995 2 20580 28.4707 258.2342 0002960 30.2099 93.9685 15.07872314202160 ISS 1 25544U 98067A 15316.62786913 .00011589 00000-0 17626-3 0 9997 2 25544 51.6451 63.2291 0006469 132.1843 10.8792 15.55008940971139 CO-58 1 28895U 05043F 15316.00359444 .00000776 00000-0 15980-3 0 9995 2 28895 97.8211 136.0914 0016833 185.0223 175.0814 14.62968910535205 FALCON 1 30776U 07006E 15316.90996777 .00008636 00000-0 32501-3 0 9993 2 30776 35.4251 147.4825 0000329 329.5938 183.2432 15.26441918479025 MAST 1 31126U 07012K 15316.90630692 .00000419 00000-0 99903-4 0 9992 2 31126 97.9816 278.3530 0090345 191.2368 230.1404 14.56202624455138 CAPE1 1 31130U 07012P 15316.86985970 .00000653 00000-0 15080-3 0 9997 2 31130 98.0031 275.7813 0096114 212.0464 147.4868 14.55695544454519 COMPASS 1 32787U 08021E 15316.85626040 .00002482 00000-0 25434-3 0 9992 2 32787 97.6331 359.8664 0011505 280.0360 79.9561 14.91298987408669 AAUSAT2 1 32788U 08021F 15316.07287158 .00003411 00000-0 33809-3 0 9998 2 32788 97.6343 0.8790 0010830 278.4607 81.5385 14.92406450408650 DO-64 1 32789U 08021G 15315.96414442 .00006199 00000-0 48629-3 0 9996 2 32789 097.6368 013.9474 0009280 265.1508 220.4777 15.01267357409137 CO-66 1 32791U 08021J 15316.40294615 .00002186 00000-0 23653-3 0 9999 2 32791 97.6330 356.8169 0012305 290.8083 69.1816 14.89219264408370 RS-30 1 32953U 08025A 15316.24895446 .00000010 00000-0 -13620-7 0 9996 2 32953 82.5032 242.1540 0019435 114.2984 246.0125 12.43064943339004 METEOR-M 1 35865U 09049A 15316.76637358 -.00000013 00000-0 12943-4 0 9998 2 35865 98.4838 351.6597 0003313 60.1940 69.2545 14.22053323319329 RS-38 1 35869U 09049E 15316.53579042 .00000057 00000-0 44566-4 0 9995 2 35869 98.4760 350.9954 0005460 48.2776 311.8872 14.22316518319344 JUGNU 1 37839U 11058B 15316.58505847 .00000424 00000-0 83980-4 0 9995 2 37839 19.9625 22.8567 0018737 241.9252 265.4455 14.12501901211228 SRMSAT 1 37841U 11058D 15316.66715786 .00000381 00000-0 64521-4 0 9994 2 37841 19.9724 52.0877 0011830 162.2267 345.3552 14.10508164210948 RAX-2 1 37853U 11061D 15316.73613928 .00008799 00000-0 52572-3 0 9997 2 37853 101.7010 240.8688 0190534 1.3547 358.8138 14.97565040219320 AUBIESAT 1 37854U 11061E 15316.76057996 .00010348 00000-0 59819-3 0 9992 2 37854 101.6905 245.1377 0181133 354.3996 5.5185 14.99804698219471 HRBE 1 37855U 11061F 15316.75456098 .00010602 00000-0 59748-3 0 9992 2 37855 101.7003 243.3574 0196093 357.6562 2.3709 14.98656765219394 HORYU-2 1 38340U 12025D 15316.19076671 .00001440 00000-0 22383-3 0 9991 2 38340 98.3317 290.1112 0011751 352.5017 7.6013 14.74625096187349 RS-40 1 38735U 12041C 15316.50565599 .00000040 00000-0 21992-3 0 9994 2 38735 82.4755 327.5014 0016098 213.9601 146.0448 12.42570285149330 PROITERES 1 38756U 12047B 15316.87536429 .00000756 00000-0 11761-3 0 9990 2 38756 98.2271 58.7448 0012036 177.3893 182.7387 14.75988353170935 BEESAT-3 1 39134U 13015E 15316.34921558 .00006617 00000-0 37346-3 0 9999 2 39134 64.8720 302.9428 0021142 236.0928 123.8186 15.13764728141118 BEESAT-2 1 39136U 13015G 15316.17992493 .00006291 00000-0 37479-3 0 9993 2 39136 64.8727 307.1839 0021788 233.8738 126.0369 15.11856494141028 ZACUBE-1 1 39417U 13066B 15316.81561087 .00001235 00000-0 16503-3 0 9991 2 39417 97.7126 13.6356 0060369 13.6156 346.6667 14.80019974106613 TRITON-1 1 39427U 13066M 15316.10730385 .00000972 00000-0 16507-3 0 9994 2 39427 97.6967 358.0275 0116470 55.1637 306.0457 14.66888149105542 DELFIN3XT 1 39428U 13066N 15316.57259125 .00001708 00000-0 28716-3 0 9997 2 39428 97.6982 356.5310 0124682 59.4122 301.9313 14.65789227105476 GOMX-1 1 39430U 13066Q 15316.56750071 .00001061 00000-0 20316-3 0 9995 2 39430 97.6948 348.8641 0154462 82.1681 279.7014 14.58294954105003 LO-74 1 39440U 13066AA 15316.12177019 .00001156 00000-0 17077-3 0 9998 2 39440 97.7062 7.0448 0082321 30.5172 330.0790 14.74811752106133 PUCPSAT-1 1 39442U 13066AC 15316.14568173 .00002387 00000-0 25669-3 0 9990 2 39442 97.7249 22.6975 0032576 356.9000 3.2010 14.89077593105880 SPROUT 1 39770U 14029E 15316.38097051 .00003881 00000-0 46770-3 0 9998 2 39770 97.8747 51.2394 0010703 80.0508 280.1903 14.84389576 79617 POPSAT-HIP1 1 40028U 14033U 15316.61057531 .00001811 00000-0 20603-3 0 9994 2 40028 97.9422 217.1075 0015634 57.6485 302.6242 14.87395904 75849 EO-80 1 40032U 14033Y 15316.77249216 .00001787 00000-0 20513-3 0 9991 2 40032 97.9392 216.7965 0013491 54.7590 305.4887 14.87081329 75857 VELOX-1 1 40057U 14034E 15316.86639304 .00001904 00000-0 28259-3 0 9996 2 40057 98.2083 37.3662 0012337 120.4736 239.7692 14.76218700 73817 DAURIA DX 1 1 40071U 14037C 15316.88463207 .00000898 00000-0 12444-3 0 9994 2 40071 98.3462 34.3322 0009581 119.1589 241.0568 14.80581004 72792 UKUBE-1 1 40074U 14037F 15316.86584151 .00001921 00000-0 24590-3 0 9990 2 40074 98.3490 35.5934 0005707 122.3448 237.8323 14.82581050 72867 HODOYOSHI-1 1 40299U 14070B 15316.88659300 .00004365 00000-0 20266-3 0 9998 2 40299 97.4482 36.5656 0012684 341.8065 151.7837 15.20477359 56409 CHUBUSAT-1 1 40300U 14070C 15316.87586139 .00004697 00000-0 22921-3 0 9997 2 40300 97.4453 35.3970 0021359 340.6911 154.9950 15.18582672 56337 QSAT-EOS 1 40301U 14070D 15316.87464925 .00008410 00000-0 40320-3 0 9996 2 40301 97.4407 34.6186 0030629 339.8167 157.0311 15.18737143 56296 TSUBAME 1 40302U 14070E 15316.89833905 .00004787 00000-0 26199-3 0 9998 2 40302 97.4380 32.4928 0042098 346.0602 103.0137 15.13955189 56164 FIREBIRD FU3 1 40377U 15003B 15316.82622753 .00008267 00000-0 39401-3 0 9994 2 40377 99.1009 17.8849 0153206 125.9253 235.6300 15.09596432 42966 FIREBIRD FU4 1 40378U 15003C 15316.82351433 .00008132 00000-0 38729-3 0 9992 2 40378 99.1009 17.8898 0153479 125.8928 235.6656 15.09596046 42966 GRIFEX 1 40379U 15003D 15316.81400606 .00006780 00000-0 33246-3 0 9995 2 40379 99.1016 17.5843 0155569 127.8930 233.6479 15.08482396 42949 NO-84 1 40654U 15025X 15316.41449042 .00022245 00000-0 53798-3 0 01842 2 40654 054.9912 295.5186 0227945 253.1291 104.4615 15.18538964026659 NO-83 1 40655U 15025X 15316.30650024 .00028962 00000-0 67544-3 0 01896 2 40655 054.9976 294.9130 0220079 253.5361 104.1278 15.20642789026651 LAMBDA-SAT 1 40458U 98067GB 15136.30676273 .20783109 12527-4 14817-2 0 9995 2 40458 051.6075 233.7697 0010355 318.5347 043.1720 16.39926603 21161 DEORBITSAIL 1 40719U 15032E 15316.43674988 .00002303 00000-0 35005-3 0 9991 2 40719 98.0377 204.7388 0015840 212.8029 147.2198 14.74915746 18381 NUDT-PHONESAT 1 40900U 15049B 15316.89654707 .00009884 00000-0 54567-3 0 9993 2 40900 97.4486 323.8662 0018038 88.8296 336.4544 15.13993130 8163 XW-2D 1 40907U 15049J 15316.88727236 .00004245 00000-0 24725-3 0 9996 2 40907 97.4529 323.7771 0017364 68.3400 48.9191 15.12411578 8140 XW-2F 1 40910U 15049M 15316.88489218 .00006262 00000-0 36291-3 0 9997 2 40910 97.4553 323.7894 0018593 67.0125 17.6196 15.12395833 8033 XW-2B 1 40911U 15049N 15316.88686438 .00004368 00000-0 25417-3 0 9994 2 40911 97.4575 323.8127 0017143 68.4464 50.3677 15.12441427 8049 DCBB 1 40912U 15049P 15316.88914880 .00006886 00000-0 37941-3 0 9992 2 40912 97.4568 323.9402 0018939 65.6052 18.8431 15.14167213 8053 TW-1C 1 40926U 15051B 15316.91611376 .00017442 00000-0 58095-3 0 9991 2 40926 97.3024 351.6375 0017923 104.6009 18.3009 15.31022803 7452 TW-1A 1 40928U 15051D 15316.83778970 .00012085 00000-0 40991-3 0 9992 2 40928 97.2977 351.5228 0016669 119.1634 295.2619 15.30540578 7442 IO-86 1 40931U 15052B 15316.15776324 .00001070 00000-0 60618-4 0 9994 2 40931 6.0030 69.3893 0012877 275.6206 84.2533 14.76374433 6653 AAUSat-5 1 40948U 98067GZ 15316.72901421 .00073451 00000-0 88419-3 0 9990 2 40948 51.6412 61.9606 0004978 131.1576 228.9847 15.60137657 5945 GomX-3 1 40949U 98067HA 15316.80571213 .00052749 00000-0 66457-3 0 9997 2 40949 51.6362 61.7122 0006702 135.0040 225.2015 15.58927943 5957 LQSat 1 40958U 15057A 15316.84152790 .00000469 00000-0 81100-4 0 9999 2 40958 98.0387 29.3494 0019164 126.9003 233.3948 14.72740727 5396 AO-85 1 40967U 15058D 15316.24433508 .00001896 00000-0 21217-3 0 00395 2 40967 064.7802 186.5151 0217930 271.3458 086.2699 14.74391203004990 /EX